STARLINK-34055, 63819

Orbit data source: Space-Track

STARLINK-34055, 63819 is a payload satellite owned by SpaceX/Seattle (US) in LEO that was launched on Sun, 04 May 2025 UTC via an FALCON 9 launch vehicle from the Air Force Eastern Test Range (AFETR). Payload-class satellites include a variety of spacecraft equipped with specific instruments for various scientific and technological missions. These include communications satellites like Starlink; space stations such as the ISS; scientific satellites like the Hubble; Earth observation satellites from companies like Planet Labs, Umbra, and HawkEye 360; GPS; miniature CubeSats for education and research; and military/defense satellites.

Loading next visibility...
Identifier
63819, 2025-092R
Orbit
LEO
Country
Flag of USUS
Related business
Manufacturer
SpaceX/Seattle
Mission
Operational Commercial Communications
Bus & Motor
STARLINK V2MO, Unknown motor
Mass
575 kg wet, ~530 kg dry
Launch date (UTC)
2025-05-04 (1 year ago)
Launch vehicle
FALCON 9
Launch site
Air Force Eastern Test Range (AFETR)
Object type
Payload
Rocket body
Debris
Shape & HBR
Box + 2 Pan, 17.7 m
Radar Cross Section
36.964 m², Large (>1 m²)

Expand to show TLE details & history
Last TLE update: 12 hours ago

TLE from 12 hours ago
0 STARLINK-34055
1 63819U 25092R   26126.50472435  .00026651  00000-0  96560-3 0  9991
2 63819  42.9979 206.2768 0001090 298.5920  61.4822 15.27882177 57457
Epoch: 2026-05-06T12:06Z
TLE epoch observation values (Epoch: 2026-05-06T12:06:48.183Z)
Latitude
-0.00003°
Longitude
160.21174°
Altitude
481.563 km
Speed
7.627 km/s
True Right ascension
13h 45m 06s
True Declination
0° 00' 00"
Sunlit
Object was in full shadow at epoch
Visualization orbit readout
Latitude
Unknown
Longitude
Unknown
Altitude
Unknown
Speed
Unknown
Apparent Right ascension
Unknown
Apparent Declination
Unknown
Sunlit
N/A
Visualization observer readout
Local Sidereal Time
07:59:19
Azimuth
Unknown
Elevation
Unknown
Doppler factor
Unknown
Orbital elements
Apogee altitude
484.838 km
Perigee altitude
483.342 km
Semi-major axis
6,862.227 km
Eccentricity
0.00011
Inclination
42.9979°
RAAN
206.2768°
Arg. of periapsis
298.592°
True anomaly
61.49318°
Mean anomaly
61.4822°
Eccentric anomaly
61.48769°
Mean motion
3.81808 °/min
Orbital period
94.29 mins
BSTAR
0.0009656
Loading maneuver chart data...
Computing Atmospheric mass density...
Loading historical data...
Loading historical data...
Loading historical data...
Loading historical data...
Loading historical data...
Loading historical data...
Loading historical data...

Documentation

Showing up to 5 results
|